STARLINK-31959, 59925

Orbit data source: Space-Track

STARLINK-31959, 59925 is a payload satellite owned by SpaceX/Seattle (US) in LEO that was launched on Sat, 01 Jun 2024 UTC via an FALCON 9 launch vehicle from the Air Force Eastern Test Range (AFETR). Payload-class satellites include a variety of spacecraft equipped with specific instruments for various scientific and technological missions. These include communications satellites like Starlink; space stations such as the ISS; scientific satellites like the Hubble; Earth observation satellites from companies like Planet Labs, Umbra, and HawkEye 360; GPS; miniature CubeSats for education and research; and military/defense satellites.

Loading next visibility...
Identifier
59925, 2024-106D
Orbit
LEO
Country
Flag of USUS
Related business
Manufacturer
SpaceX/Seattle
Mission
Operational Commercial Communications
Bus & Motor
STARLINK V2M, Unknown motor
Mass
730 kg wet, ~700 kg dry
Launch date (UTC)
2024-06-01 (2 years ago)
Launch vehicle
FALCON 9
Launch site
Air Force Eastern Test Range (AFETR)
Object type
Payload
Rocket body
Debris
Shape & HBR
Box + 2 Pan, 17.7 m
Radar Cross Section
33.884 m², Large (>1 m²)

Expand to show TLE details & history
Last TLE update: 5 hours ago

TLE from 5 hours ago
0 STARLINK-31959
1 59925U 24106D   25355.47021575  .00001100  00000-0  49501-4 0  9999
2 59925  43.0048  50.4263 0001520 272.6329  87.4348 15.27589001 88604
Epoch: 2025-12-21T11:17Z
TLE epoch observation values (Epoch: 2025-12-21T11:17:06.640Z)
Latitude
-0.00008°
Longitude
150.86634°
Altitude
482.752 km
Speed
7.626 km/s
True Right ascension
03h 21m 42s
True Declination
0° 00' 00"
Sunlit
Object was in full shadow at epoch
Visualization orbit readout
Latitude
Unknown
Longitude
Unknown
Altitude
Unknown
Speed
Unknown
Apparent Right ascension
Unknown
Apparent Declination
Unknown
Sunlit
N/A
Visualization observer readout
Local Sidereal Time
15:20:48
Azimuth
Unknown
Elevation
Unknown
Doppler factor
Unknown
Orbital elements
Apogee altitude
486.01 km
Perigee altitude
483.923 km
Semi-major axis
6,863.104 km
Eccentricity
0.00015
Inclination
43.0048°
RAAN
50.4263°
Arg. of periapsis
272.6329°
True anomaly
87.4522°
Mean anomaly
87.4348°
Eccentric anomaly
87.4435°
Mean motion
3.81735 °/min
Orbital period
94.31 mins
BSTAR
0.000049501
Loading maneuver chart data...
Computing Atmospheric mass density...
Loading historical data...
Loading historical data...
Loading historical data...
Loading historical data...
Loading historical data...
Loading historical data...
Loading historical data...

Documentation

Showing up to 5 results
|